Theta_e
349 354 360 359 358 357 356 356 356 355 354 354 354 353 352 351 351 352 352 353 354 354 353 353 353 353 353 352 352 353 353 353 352 351 351 350 350 350 350 354 356 355 358
351 355 360 360 359 357 356 355 355 354 354 353 351 350 351 352 354 354 354 355 356 353 353 353 354 353 353 353 353 353 354 354 354 355 355 353 351 350 352 353 354 354 357
351 355 357 360 359 356 355 354 354 354 352 350 351 353 354 354 354 356 356 356 355 353 354 354 353 352 353 353 353 352 353 353 352 353 353 349 347 351 355 354 354 353 356
351 352 354 360 357 354 354 355 353 351 351 353 355 356 357 356 355 353 352 352 352 351 351 351 351 349 348 349 352 352 352 352 352 354 346 346 346 354 359 357 357 353 353
351 353 354 358 357 356 354 351 352 353 355 356 355 354 353 352 350 349 349 348 348 348 348 348 347 346 346 346 346 347 347 348 349 345 338 340 340 347 361 357 354 356 355
350 351 356 358 357 354 351 355 356 356 354 353 351 350 350 348 347 345 344 344 344 344 343 343 342 341 342 343 343 344 345 346 347 335 334 335 340 346 358 356 355 356 354
347 350 352 356 356 355 356 354 353 352 351 350 349 347 346 344 343 337 336 335 334 335 335 335 337 337 337 337 338 340 342 344 338 332 332 333 345 355 357 353 350 350 354
347 350 350 355 356 356 353 352 351 349 347 346 345 344 342 341 338 334 333 333 333 334 334 335 336 337 338 339 340 343 343 343 338 333 332 330 348 355 353 353 350 351 354
349 347 347 349 350 352 351 348 346 344 343 342 342 342 341 339 337 333 331 332 334 334 335 336 338 339 340 342 342 342 345 343 332 333 330 329 354 352 345 339 345 350 354
344 345 343 342 342 341 341 345 341 340 340 341 339 340 339 338 336 333 338 332 334 337 341 341 341 340 339 339 340 341 339 335 326 324 323 339 352 349 345 346 350 351 352
342 341 341 340 339 338 337 338 342 339 339 338 334 338 333 322 323 326 335 336 340 338 337 336 338 339 336 331 334 335 331 319 320 320 337 346 347 346 345 345 345 345 349
337 340 340 339 338 335 338 334 331 334 326 324 324 322 321 320 326 326 331 334 333 332 332 332 332 331 326 319 319 326 322 323 326 333 337 342 343 344 342 341 344 346 345
338 340 340 340 336 333 333 331 329 326 323 322 321 320 320 320 321 321 319 318 316 324 317 320 317 318 319 319 320 321 325 327 326 329 337 341 341 342 341 341 340 341 345
337 338 340 340 336 333 333 331 330 324 322 321 320 320 320 318 320 320 317 316 316 313 314 316 315 318 317 319 320 321 324 325 326 329 334 339 339 341 342 342 342 340 342
334 336 339 338 336 335 334 329 326 323 322 321 320 320 320 319 319 317 314 313 312 314 314 315 315 316 316 318 319 323 324 324 325 327 327 337 337 338 339 341 341 341 341
336 339 342 340 337 333 329 325 322 323 321 320 319 319 320 317 317 313 311 310 311 314 314 314 314 314 313 316 317 321 322 323 323 322 324 326 335 335 336 337 338 338 337
340 343 341 339 336 331 327 326 325 326 323 320 319 319 320 317 314 310 309 311 313 312 313 314 314 313 314 314 314 318 321 322 323 321 321 322 323 332 332 334 334 334 334
342 341 340 340 334 332 331 326 323 322 321 320 319 318 319 318 313 310 310 311 311 311 311 311 311 310 310 311 311 313 316 318 320 321 320 320 319 321 327 330 331 333 332
342 340 338 336 333 331 329 322 321 319 319 318 317 317 317 318 315 310 310 308 309 308 308 309 308 309 306 306 311 311 313 316 317 318 319 317 317 318 317 327 327 327 328
341 340 337 335 331 329 323 320 320 318 317 317 316 316 316 315 315 310 310 309 308 307 307 307 307 306 306 304 309 309 311 314 316 314 316 318 316 315 315 315 316 321 326
339 336 335 331 328 326 321 318 316 314 314 314 315 314 315 312 313 308 308 308 307 306 305 307 307 304 305 303 300 303 313 318 315 312 311 312 315 315 315 315 315 314 317
335 335 333 331 328 325 322 318 317 315 314 314 313 313 313 312 312 310 309 308 307 305 304 304 304 301 300 300 298 299 299 306 303 311 309 309 307 309 313 314 314 313 313
332 332 331 330 329 326 323 319 316 316 314 312 309 308 311 312 312 309 309 306 306 305 303 303 302 300 298 300 299 297 292 290 294 299 307 308 307 307 307 308 311 313 312
330 332 331 331 327 326 321 317 316 314 310 310 309 308 308 312 312 312 310 307 305 305 304 304 304 300 299 299 300 300 298 295 292 292 297 298 303 306 301 299 308 311 307
331 330 330 329 326 322 316 315 314 311 311 311 308 306 306 307 310 311 310 309 307 304 305 303 301 302 300 299 299 297 295 295 294 293 291 294 297 298 298 298 300 304 305
332 330 329 328 325 321 316 314 313 312 310 310 306 305 305 305 307 309 310 307 307 306 305 304 300 301 300 299 298 299 297 294 293 293 292 291 292 296 298 301 299 303 304
Wind_Speed
5 7 13 17 17 16 15 15 15 15 14 14 13 12 12 12 11 11 10 9 8 9 8 8 8 8 8 8 8 9 9 9 8 7 5 4 3 3 3 5 8 7 8
10 8 14 15 16 16 15 15 14 14 14 12 12 11 11 11 10 9 9 9 10 10 10 11 10 10 9 9 9 9 9 9 10 11 10 6 5 5 8 5 7 6 9
11 9 10 15 16 16 15 15 14 13 12 12 11 10 10 10 10 10 12 11 10 10 11 11 10 10 10 10 9 9 9 10 10 11 12 5 5 8 9 10 8 10 11
10 7 8 15 15 16 15 14 13 12 12 12 10 11 12 13 13 11 11 11 11 11 11 11 11 11 11 11 11 10 10 11 11 11 4 5 7 12 12 13 10 9 10
10 8 11 15 15 16 14 13 12 12 11 13 12 11 11 12 12 11 11 11 10 10 10 11 11 11 12 12 12 12 12 12 13 9 6 6 6 10 7 13 8 9 10
9 8 14 15 15 15 15 13 13 14 13 12 12 11 11 11 11 10 9 8 9 9 9 9 10 11 12 13 13 14 14 14 14 6 5 6 8 10 11 12 11 10 8
9 8 11 15 14 15 15 14 12 12 12 11 10 10 10 9 9 8 8 8 8 9 9 10 12 12 13 13 14 14 14 15 8 6 6 6 6 8 12 10 7 7 10
13 10 10 15 15 15 15 14 13 11 11 10 10 10 9 8 7 6 6 7 8 9 9 10 11 13 13 14 15 14 14 13 8 6 7 5 4 11 13 11 11 10 8
11 9 7 8 11 14 14 13 12 10 10 10 9 8 7 5 3 2 3 5 7 8 10 12 13 12 11 11 11 13 15 11 6 5 9 2 7 5 3 5 5 9 9
9 8 7 6 6 6 6 12 11 10 9 6 5 7 5 2 2 3 3 5 8 10 9 12 12 9 11 14 16 16 15 14 6 6 5 3 8 6 4 7 7 8 9
8 7 7 7 7 6 5 8 10 11 9 8 7 9 5 3 3 6 4 8 11 11 15 11 11 12 15 15 15 19 17 5 7 6 7 21 18 13 8 4 5 7 7
13 10 7 7 8 7 7 5 4 4 4 5 6 6 4 4 5 6 8 12 13 14 14 14 13 16 12 4 5 10 4 6 7 8 7 19 17 15 12 11 10 6 5
15 11 11 9 7 7 5 4 2 2 3 4 6 5 5 4 4 4 3 3 5 9 4 6 7 4 5 4 5 5 6 7 4 4 10 17 15 13 10 10 8 7 6
13 12 11 9 8 6 6 5 4 4 3 4 4 5 4 3 4 4 3 4 4 3 6 5 4 4 6 6 6 6 8 7 4 4 8 17 14 16 16 13 10 8 9
15 13 11 8 6 5 7 4 4 3 3 4 5 4 4 4 4 3 3 3 4 4 4 4 5 4 5 6 6 7 8 9 8 5 5 20 18 20 18 20 20 19 19
14 10 8 8 7 4 6 7 5 4 5 5 4 3 5 3 4 4 4 4 4 4 3 4 4 4 4 5 6 5 6 6 6 7 5 7 21 22 20 22 23 23 24
15 13 11 9 8 8 8 6 5 3 5 4 4 3 6 3 4 4 4 4 3 4 5 6 5 5 5 4 6 5 4 5 5 7 6 5 6 18 20 20 19 19 18
15 16 13 10 10 9 7 5 4 4 4 4 4 2 6 4 4 5 4 4 3 5 4 4 4 4 4 4 2 3 3 4 5 5 5 4 4 5 12 19 20 20 20
18 16 13 13 11 9 7 5 6 7 4 4 3 3 4 4 5 5 4 2 5 5 5 3 4 3 4 3 2 3 1 4 4 5 5 6 6 7 4 16 18 17 18
17 16 16 12 12 10 7 5 5 5 4 4 4 4 4 4 6 4 4 5 5 5 5 4 4 4 2 2 3 3 3 3 3 4 4 4 4 5 5 4 4 7 16
16 17 18 16 13 11 7 5 5 5 4 3 3 5 6 4 5 5 4 5 6 5 3 5 2 5 5 4 2 4 3 3 4 3 3 3 3 2 5 3 3 3 6
16 17 16 14 14 12 8 3 4 5 2 4 3 4 5 6 5 5 5 5 5 4 6 6 6 3 3 5 3 3 2 3 3 4 3 2 1 1 2 3 3 4 4
19 18 19 17 14 12 10 6 5 5 4 3 2 2 2 5 5 6 6 5 5 4 4 4 4 5 3 3 7 4 3 1 2 4 4 3 5 2 2 2 4 4 4
5 4 5 12 12 11 12 9 14 7 6 4 3 3 3 5 4 6 6 6 5 3 5 4 4 4 2 4 3 5 5 3 3 3 4 5 2 3 1 3 3 3 4
16 11 17 8 5 5 8 11 11 8 4 4 3 6 3 2 5 5 6 5 4 3 3 5 5 5 3 3 3 2 4 4 4 3 1 5 4 4 3 2 1 2 2
12 16 12 15 13 10 8 8 11 12 9 8 5 5 4 3 2 3 5 5 4 4 3 2 3 5 4 3 2 3 3 2 1 3 2 1 2 3 2 2 3 4 4
Wind_Direction
164 158 135 124 118 114 111 106 102 96 91 87 83 79 74 72 72 70 65 59 52 47 44 39 37 33 24 19 11 7 3 358 355 353 1 357 329 225 238 284 147 143 126
141 146 136 124 120 116 111 107 103 99 95 88 85 82 82 79 73 67 62 62 56 49 40 33 28 22 17 11 8 2 354 346 340 335 341 329 293 252 201 208 167 162 132
138 138 133 127 122 119 116 112 107 102 98 96 95 92 91 85 81 66 60 55 52 49 45 40 34 27 17 9 3 358 353 346 341 337 335 321 298 266 214 197 183 172 153
135 130 138 126 123 118 118 113 109 109 108 106 102 88 81 78 72 63 58 50 42 38 33 29 24 20 15 11 6 359 350 344 340 338 345 313 294 287 239 194 186 190 170
132 133 137 128 125 122 120 119 121 120 114 108 100 91 87 79 73 64 52 47 38 34 27 21 16 10 4 358 354 349 345 341 338 347 322 297 281 286 212 182 193 195 193
128 133 134 130 131 129 127 126 126 114 111 106 101 92 85 81 74 67 60 49 38 34 22 15 7 1 357 350 344 339 334 333 336 332 323 302 305 276 169 170 187 214 213
131 137 130 134 140 136 130 127 114 107 109 109 107 101 99 95 93 78 65 50 40 31 16 11 9 4 0 350 343 333 329 327 338 332 307 310 310 139 151 157 171 199 212
138 135 140 137 130 131 134 126 125 128 123 121 117 112 108 101 99 86 60 58 44 29 8 360 0 356 355 348 344 335 326 333 332 306 300 292 234 146 169 184 199 214 213
136 132 133 137 138 137 134 135 136 137 133 128 121 116 117 117 119 92 37 21 40 15 1 352 356 355 349 351 359 356 1 357 350 308 309 285 189 162 172 287 272 265 243
136 133 137 139 130 138 151 147 145 140 133 133 144 152 155 122 279 301 287 344 9 13 10 17 34 19 1 356 357 354 7 12 348 332 328 345 180 193 239 261 285 297 280
146 153 155 154 161 164 163 163 152 140 127 85 65 85 86 57 55 41 15 38 50 44 40 35 20 10 7 4 19 31 36 17 17 7 23 35 35 34 23 353 336 326 330
162 175 176 176 175 170 170 152 155 128 96 78 76 64 92 50 41 49 45 55 51 40 32 23 16 17 24 14 15 27 28 30 31 32 38 35 31 26 24 19 7 310 302
172 168 180 185 189 181 154 153 153 116 109 79 71 59 57 48 33 30 42 30 33 33 23 13 15 20 22 25 33 34 33 46 26 27 43 38 33 30 26 14 5 356 309
169 174 179 187 188 206 155 173 147 121 105 85 77 66 61 48 33 39 55 46 37 6 14 12 14 32 41 41 51 45 47 46 26 20 37 49 43 46 42 30 4 2 34
167 172 176 186 199 183 157 126 115 114 109 107 81 64 68 50 50 64 32 50 26 18 24 21 35 23 46 47 38 63 58 55 51 33 20 55 53 57 49 58 53 53 56
163 159 152 153 147 122 117 121 128 154 139 102 83 81 68 53 92 74 44 24 32 41 37 48 33 42 22 32 48 51 73 70 59 54 41 24 51 58 60 64 64 65 66
166 150 148 142 132 122 134 124 130 142 117 104 106 89 78 67 87 88 63 47 50 41 43 40 32 22 43 33 50 66 74 80 79 72 61 43 19 51 56 60 66 70 69
155 156 155 150 144 137 132 142 129 128 105 113 104 109 84 94 115 74 73 51 48 49 48 46 33 42 23 38 52 36 84 85 95 80 72 51 51 38 42 53 56 65 71
163 160 156 151 150 141 121 112 110 109 113 106 116 88 79 66 86 82 95 65 54 46 33 33 24 71 29 356 69 91 62 93 84 88 78 72 62 75 30 66 64 58 60
168 164 156 157 150 124 118 115 97 104 105 115 101 88 77 51 89 79 71 62 56 49 23 26 45 23 59 337 1 43 70 85 73 83 122 105 95 95 102 82 60 61 69
175 166 163 155 152 136 141 149 126 127 119 98 103 104 97 80 84 79 70 66 56 61 36 22 34 44 9 352 68 27 29 94 84 62 71 117 128 145 132 114 78 62 62
186 169 160 156 157 147 152 141 123 134 119 124 125 106 115 108 103 84 99 79 82 73 40 34 34 27 10 359 107 91 55 339 17 26 40 58 179 26 111 119 115 110 96
184 178 163 161 161 153 144 118 93 88 73 88 110 113 137 125 114 106 105 103 83 74 63 55 49 52 39 355 36 126 81 191 331 355 356 346 356 4 357 92 157 150 123
75 319 113 141 163 152 150 141 151 152 152 177 162 143 150 139 127 109 101 92 85 83 69 60 48 55 56 30 360 23 56 129 119 10 347 340 344 358 357 334 158 163 160
140 173 140 199 169 142 145 152 153 143 137 137 122 134 146 158 159 125 112 115 99 83 80 76 63 61 45 75 56 26 36 38 60 111 323 328 339 347 29 150 210 238 208
180 163 169 164 166 152 149 167 147 146 144 143 145 158 173 178 182 131 131 123 140 129 120 109 94 75 74 77 82 66 88 93 17 72 66 282 277 321 330 1 154 203 217